Theta_e
303 303 303 304 304 305 305 305 305 304 303 300 296 298 298 295 292 301 304 306 304 299 292 292 290 291 293 294 294 294 295 294 294 293 293 291 291 291 290 292 290 291 290 288 289 289 289 290 291 291 293 292 293 293 295 294 294 294 292 293 294 307 290 286 285 288 290 292 293 293 291 290 291 289 288 289 291 290 292 292 289 286 284 284 284 282 285
303 303 303 304 304 305 305 305 306 305 303 300 298 296 294 295 296 298 303 305 302 295 285 286 286 290 293 292 291 291 293 292 291 291 291 290 289 289 290 291 291 290 290 291 289 291 286 288 289 291 292 293 296 295 297 299 299 298 294 294 300 289 288 288 283 283 285 288 291 291 291 291 289 289 288 286 288 289 288 288 289 286 284 286 285 280 284
303 303 304 304 304 304 305 305 305 304 304 302 298 296 294 296 296 298 300 303 300 290 290 289 285 289 287 289 287 288 290 292 291 291 290 292 289 289 289 290 291 290 291 290 289 290 288 289 289 290 290 292 295 294 293 299 301 302 302 300 297 292 287 287 282 279 277 277 278 281 285 287 287 287 286 286 289 288 290 286 287 284 283 282 285 283 286
303 303 304 304 304 304 304 304 304 304 303 301 299 294 297 292 287 292 295 298 298 295 297 292 289 287 287 286 287 288 286 291 292 292 290 292 290 289 288 289 290 289 290 290 289 288 290 290 289 289 290 291 293 293 294 299 301 303 304 300 296 286 287 285 285 286 285 286 285 286 286 287 286 286 286 285 286 288 290 290 286 285 283 284 284 287 285
302 303 303 304 304 304 304 304 304 303 303 302 297 294 295 292 288 286 286 294 295 291 293 288 290 287 288 284 286 285 286 287 290 293 289 290 290 288 287 286 289 287 290 288 288 287 288 289 289 286 287 289 290 292 292 293 298 304 300 297 293 290 285 286 285 283 283 284 284 286 287 285 284 286 286 286 286 288 293 287 286 289 286 283 286 286 287
302 303 303 304 304 304 305 304 304 303 302 302 299 293 293 288 287 291 292 288 285 286 287 288 288 291 290 286 288 285 285 285 283 289 291 291 290 289 288 287 286 284 286 289 286 286 286 287 285 288 287 288 291 291 292 291 294 301 298 297 297 289 284 285 286 284 286 286 286 288 287 285 285 285 285 286 287 289 288 284 285 289 286 286 285 286 284
302 302 303 304 304 304 304 305 304 303 301 301 298 293 291 291 289 292 292 287 288 289 289 290 289 288 290 287 287 285 285 284 285 284 287 288 287 288 283 285 285 286 287 288 285 284 285 283 287 285 287 287 288 290 292 293 293 293 298 295 294 292 284 285 285 285 286 286 287 288 288 286 286 285 284 285 287 285 286 285 285 287 286 286 286 285 283
302 302 303 303 304 304 304 305 304 302 300 300 297 292 291 289 289 289 291 290 288 289 290 290 289 285 288 285 286 286 285 285 286 286 286 283 286 288 286 285 286 286 286 286 284 284 286 285 283 286 286 289 289 287 288 287 293 292 292 292 294 295 285 289 286 284 284 286 288 288 288 288 286 285 286 286 287 287 286 286 286 287 285 286 285 284 282
302 302 302 303 304 304 304 304 304 302 300 298 294 293 294 293 293 291 289 285 286 289 286 287 286 284 285 284 286 286 286 285 287 285 288 286 284 285 284 285 287 286 287 287 285 286 286 286 287 288 287 285 289 287 288 289 289 289 290 292 292 296 288 290 288 283 283 285 285 285 286 286 285 284 286 287 288 286 285 284 285 286 284 284 285 284 282
301 301 302 303 303 304 304 304 304 302 300 295 293 292 294 294 293 292 290 283 285 283 285 286 286 282 285 286 285 284 284 286 288 284 288 288 288 287 286 287 287 287 287 286 286 288 288 288 289 289 290 290 289 289 289 288 288 288 288 288 290 292 289 286 287 284 280 284 284 285 285 286 284 284 284 283 282 284 282 284 285 286 287 286 286 286 286
301 301 302 302 303 304 304 304 305 303 299 295 294 292 293 292 292 291 287 285 284 283 283 283 283 284 286 286 285 287 285 286 287 284 284 288 287 289 288 288 287 285 285 287 290 290 290 291 291 290 289 290 289 289 288 288 288 288 288 289 287 289 290 287 290 284 281 283 284 285 283 277 280 284 284 285 284 284 284 282 282 284 286 284 286 286 287
301 301 301 302 303 303 304 304 305 304 300 295 295 294 294 293 288 287 284 283 281 284 283 281 282 283 283 284 285 284 284 285 285 287 285 287 287 289 289 288 288 285 289 293 292 291 291 290 290 290 289 288 288 289 291 290 289 288 287 289 289 288 288 286 286 283 280 283 283 280 274 278 283 286 287 287 287 286 284 284 284 285 285 285 284 284 285
301 301 301 302 303 303 304 305 304 304 303 299 296 293 295 295 291 287 285 284 280 282 282 282 283 283 284 285 284 285 285 286 287 289 288 287 288 289 288 287 286 288 292 290 290 291 289 285 286 283 287 287 288 290 289 289 289 290 289 288 290 285 286 283 282 282 282 280 279 273 276 281 283 285 286 288 288 287 287 284 284 285 286 286 284 285 285
300 301 301 302 302 303 304 304 305 305 304 301 296 294 295 294 295 290 284 282 281 284 282 284 284 284 284 283 283 284 286 286 287 288 287 288 287 287 289 290 290 292 291 290 289 289 287 287 285 286 286 287 289 288 286 288 288 289 288 287 288 290 286 285 281 283 279 279 279 277 280 281 282 281 283 285 284 284 284 280 281 285 286 287 286 285 285
300 301 301 302 302 303 304 304 305 305 304 301 298 296 295 295 294 290 285 287 282 283 284 280 282 284 284 284 283 284 284 284 285 286 286 287 288 289 289 290 292 291 291 291 290 288 284 283 282 281 282 282 279 282 286 285 287 288 289 288 288 289 287 286 284 278 280 279 277 276 276 275 280 283 286 287 287 286 286 285 280 285 286 288 287 285 286
300 300 301 301 302 303 303 304 304 304 304 302 296 295 296 295 292 292 290 286 284 279 283 285 285 285 284 283 283 283 282 282 283 284 286 287 286 289 291 291 292 292 290 289 287 287 284 282 277 278 277 279 282 280 281 285 284 288 289 289 289 288 288 286 285 279 278 278 277 275 275 277 281 284 285 287 286 287 286 285 280 284 286 287 288 286 287
300 300 301 301 302 303 303 304 304 304 304 302 296 295 295 296 295 294 290 288 288 282 286 284 286 285 284 285 285 284 284 282 283 282 281 283 284 285 288 291 293 291 288 289 286 285 283 281 282 281 281 281 280 279 283 282 281 283 287 288 287 286 283 285 281 278 277 278 277 276 275 276 281 283 285 286 287 286 286 278 278 284 286 286 287 287 287
300 300 300 301 301 302 303 304 304 304 304 303 298 296 295 297 294 293 291 288 285 284 288 288 287 285 283 284 283 285 286 286 285 284 284 284 283 285 285 288 286 290 291 285 284 282 279 280 278 278 277 282 282 283 276 281 278 279 280 282 282 281 282 281 279 276 277 277 275 276 277 281 284 284 286 286 286 287 279 276 281 284 286 286 288 287 287
300 300 300 300 301 302 303 303 304 304 304 303 298 294 296 296 296 294 291 288 287 283 287 287 287 288 287 289 286 286 285 285 284 282 282 283 284 286 285 286 287 284 286 282 283 279 278 278 282 281 278 280 283 277 281 278 277 281 282 280 280 280 279 279 280 279 278 277 278 276 277 282 284 286 286 287 285 279 279 281 285 287 286 287 288 287 287
300 300 300 300 301 301 302 303 304 304 304 304 298 294 296 295 296 295 293 286 286 286 288 288 289 288 288 288 286 286 287 286 286 284 282 280 287 286 285 282 287 287 285 286 280 281 279 277 278 281 279 280 281 284 279 278 281 279 280 281 279 279 278 277 277 276 276 276 276 275 274 280 285 285 285 287 282 281 284 285 286 288 288 287 287 288 288
300 300 300 300 301 301 302 303 304 304 304 304 298 295 297 297 298 296 294 292 289 285 287 290 288 289 288 289 291 289 289 285 287 284 285 286 286 284 278 276 282 283 280 281 278 278 279 278 280 279 281 280 281 282 277 278 279 283 282 282 281 283 278 277 277 281 277 275 275 275 279 282 287 285 282 284 286 286 287 287 286 288 288 288 288 288 288
299 299 299 300 301 301 302 303 303 304 304 304 299 294 294 297 296 297 294 294 290 286 289 289 289 292 293 292 293 293 291 290 291 291 288 285 287 286 285 286 285 285 285 285 283 281 283 282 283 280 278 280 283 278 279 277 275 280 283 283 277 283 281 282 278 281 278 277 278 282 284 286 288 288 286 287 288 290 291 290 289 288 288 290 289 289 289
299 299 299 300 300 301 302 302 303 303 304 304 299 294 293 294 296 297 294 293 291 293 292 289 290 290 294 295 293 291 292 292 294 294 293 288 285 286 286 286 286 287 287 287 284 283 283 283 278 282 280 281 278 278 279 279 276 280 278 282 283 285 285 286 284 280 283 284 285 286 286 287 287 290 291 289 290 291 292 290 288 289 290 290 289 289 290
299 299 299 299 300 301 301 302 303 303 303 304 298 294 294 294 294 296 295 291 288 287 290 290 290 287 288 290 294 292 292 291 295 293 293 296 285 284 287 288 288 289 289 289 286 286 284 283 282 283 278 281 282 278 276 276 277 281 280 279 282 284 284 285 281 283 280 276 284 284 284 285 287 287 289 290 291 290 290 290 289 290 289 289 288 289 289
299 298 299 299 300 300 301 302 302 303 303 303 300 295 296 294 295 293 294 288 287 285 281 284 286 291 292 292 291 290 290 291 295 294 293 294 293 287 285 288 290 289 287 289 287 286 283 281 282 281 277 282 282 277 281 278 278 282 277 279 281 281 286 283 282 281 279 279 284 285 287 287 288 288 288 287 288 289 289 290 290 290 290 290 289 290 290
299 298 298 299 299 300 301 302 302 302 302 302 297 293 293 293 294 294 295 291 287 284 284 282 288 294 291 292 292 292 292 291 292 295 293 291 291 296 294 290 289 290 289 287 289 285 282 280 281 281 280 279 285 279 279 281 281 282 281 280 283 282 285 279 282 280 281 283 284 284 286 286 286 287 288 289 289 289 289 289 290 290 290 290 290 290 290
299 299 299 299 299 300 301 301 302 302 302 301 295 292 294 294 294 296 295 293 290 284 285 283 286 289 291 291 292 292 290 292 292 292 291 290 290 291 292 291 291 289 289 288 285 283 282 281 282 281 283 281 284 282 282 281 282 280 280 283 284 283 281 282 282 278 278 280 283 284 280 279 285 287 288 288 289 289 289 289 289 290 289 289 289 288 289
299 299 300 299 299 300 301 302 302 302 302 299 294 294 292 295 295 295 294 295 293 285 284 282 288 291 291 290 292 291 290 292 291 291 289 289 290 291 291 289 291 292 289 287 284 284 283 280 281 281 281 284 282 280 282 282 282 282 282 283 284 282 282 282 279 279 279 284 286 288 286 285 286 288 289 289 289 289 289 289 289 289 289 289 289 288 288
299 299 299 300 300 301 301 302 302 302 302 297 294 296 296 295 295 298 297 294 293 288 285 287 290 289 285 288 292 292 291 292 292 291 291 289 290 290 289 289 290 287 286 284 282 282 282 282 282 283 283 285 283 279 281 276 275 275 281 284 284 285 285 285 284 285 284 285 287 287 287 285 286 287 289 289 289 290 289 289 289 289 290 289 289 289 288
299 299 299 300 300 301 302 302 302 302 301 295 294 290 288 294 295 297 300 298 295 293 285 281 281 284 289 289 292 290 290 292 291 292 291 290 290 290 288 291 289 289 288 284 284 281 282 282 282 284 285 288 281 279 276 278 277 280 283 284 285 284 285 286 285 285 283 286 287 287 289 288 288 288 288 289 289 290 290 290 290 290 289 289 289 289 289
299 299 299 300 301 301 302 302 302 302 298 291 290 283 281 282 291 295 298 297 294 294 283 284 283 285 286 291 288 289 289 290 291 290 290 289 288 288 287 289 288 288 287 284 284 282 281 281 282 283 286 288 283 280 280 279 276 280 284 286 287 286 286 285 286 286 287 286 286 287 288 288 288 288 288 289 290 290 291 290 291 290 290 290 289 289 289
299 299 300 300 301 301 302 302 303 301 296 295 292 289 289 292 295 295 299 298 296 295 286 282 281 282 282 285 292 289 289 288 288 289 290 290 291 289 289 287 286 289 288 283 282 281 281 280 281 283 285 285 283 279 281 279 276 278 284 285 286 286 286 286 287 287 287 288 288 287 286 286 288 287 286 290 290 290 290 290 290 290 291 290 290 289 289
299 300 300 301 301 301 302 303 302 301 298 297 298 300 299 299 300 300 298 296 295 285 286 282 279 280 281 285 288 290 289 292 291 288 288 289 289 288 287 288 288 287 287 285 282 282 281 280 281 280 283 285 281 279 281 277 280 285 286 286 285 286 286 286 287 287 287 287 288 285 283 285 287 289 289 290 290 290 289 289 289 288 289 288 288 288 289
300 300 301 301 301 302 302 302 301 300 297 296 295 295 297 299 300 297 293 293 290 286 284 282 278 279 281 286 285 289 290 287 285 286 284 289 286 287 284 287 287 283 284 283 282 282 282 282 282 281 284 281 279 279 275 281 285 285 283 283 284 285 287 287 287 287 287 287 287 288 288 288 288 288 288 289 289 288 288 288 288 287 287 287 287 288 288
301 301 301 301 301 302 300 298 295 295 293 292 293 295 295 300 300 300 297 293 284 281 281 280 281 278 279 280 278 285 288 287 285 285 283 286 288 286 286 283 283 282 282 286 281 279 280 281 283 280 279 280 279 275 277 282 284 284 283 284 284 286 286 286 286 288 287 287 288 288 287 288 289 288 288 289 289 288 287 287 287 287 286 286 287 288 288
300 300 300 301 301 298 297 298 295 294 292 292 294 297 300 301 298 294 294 293 291 281 277 278 279 279 278 275 277 283 288 286 285 285 284 284 286 286 284 283 279 281 284 281 280 281 281 283 281 277 277 276 276 279 282 285 284 285 285 285 286 287 288 288 288 287 287 288 288 287 287 288 288 288 289 289 288 288 288 288 287 287 287 287 287 289 289
299 299 299 297 296 297 291 290 293 294 293 295 297 300 300 299 296 298 296 296 295 292 287 278 279 281 282 280 279 283 287 282 285 284 285 284 282 282 283 281 279 282 281 279 279 279 282 286 280 276 275 276 278 284 285 285 285 286 286 286 287 287 287 287 288 288 287 287 287 287 287 287 288 287 288 288 288 287 287 286 287 287 286 287 287 288 288
299 297 295 295 292 285 286 287 291 296 299 299 298 295 294 292 286 285 286 285 287 290 283 285 281 283 283 283 280 286 286 282 284 282 282 281 281 281 280 280 279 280 276 274 278 284 280 277 276 276 276 283 284 283 284 284 285 284 286 286 287 287 288 288 288 288 286 285 285 286 286 286 287 287 287 288 287 286 287 288 288 289 288 288 288 288 288
294 293 290 288 288 284 286 291 296 298 297 295 295 289 286 283 283 283 282 282 283 284 283 283 283 284 284 283 284 289 285 283 281 281 280 283 280 278 281 277 279 279 274 274 278 283 276 275 272 273 276 282 283 285 285 286 285 285 285 286 287 287 288 288 289 289 287 286 286 287 287 286 286 287 288 288 288 288 288 288 288 288 288 288 288 288 287
293 289 284 283 285 288 293 294 297 294 294 288 284 283 282 283 282 280 281 280 281 281 282 282 285 285 285 284 283 283 288 286 281 280 280 281 286 278 278 279 278 276 271 270 276 282 277 273 272 272 276 281 282 286 284 285 286 287 285 285 287 287 288 288 289 290 290 290 289 289 288 289 289 289 289 288 288 286 287 288 288 289 288 288 287 287 287
290 287 287 284 290 291 294 295 294 290 286 283 282 280 279 279 281 280 279 276 276 279 283 285 284 284 284 283 285 282 288 289 285 284 283 280 284 283 278 274 278 274 269 270 277 278 276 273 271 272 276 282 284 285 283 285 286 287 286 286 287 288 288 288 289 288 289 289 288 288 288 287 288 289 289 290 289 287 285 285 288 289 288 288 287 288 288
293 293 293 294 295 294 293 290 285 285 283 281 278 275 276 278 280 280 279 277 277 278 284 284 282 283 284 286 285 286 286 288 285 283 282 278 282 279 275 275 275 272 269 275 278 275 275 271 269 272 279 283 284 283 283 284 286 287 287 286 287 287 287 288 288 287 288 290 290 290 289 288 288 288 289 289 289 288 288 288 289 289 288 288 288 287 287
297 297 296 291 289 287 284 284 283 280 275 274 272 274 275 276 277 277 279 279 280 283 284 287 286 288 288 289 285 287 286 288 285 283 280 278 281 279 275 272 270 270 274 279 276 272 271 270 268 277 283 284 284 284 284 284 285 286 287 287 288 288 288 288 289 289 288 289 289 290 289 288 289 290 289 289 289 287 287 288 289 289 288 287 287 287 286
295 294 290 283 284 284 283 276 284 281 276 273 272 271 272 274 277 276 276 280 283 284 286 284 285 285 282 286 285 285 285 287 286 282 281 279 278 274 271 270 273 277 279 274 272 272 272 271 276 281 284 283 284 285 285 285 286 286 287 287 286 286 287 287 287 288 288 287 287 288 288 289 289 288 287 288 289 289 290 290 289 287 287 286 286 286 286
288 283 280 279 278 281 280 272 278 276 272 274 274 272 273 274 275 274 279 283 285 284 286 285 285 285 284 286 287 286 286 283 285 281 277 279 275 272 272 274 275 274 273 271 268 269 270 272 280 282 282 284 286 286 285 285 285 286 288 288 287 287 287 288 288 289 289 289 289 288 288 289 289 289 288 288 289 289 289 289 290 288 287 286 286 286 286
282 281 279 274 273 277 275 271 272 274 276 277 277 280 280 282 282 282 285 284 285 286 285 286 285 286 284 286 283 282 283 282 280 280 278 277 274 274 277 277 278 274 268 265 266 269 273 278 281 283 285 285 285 284 285 286 286 286 286 288 289 288 288 288 288 289 289 289 289 289 290 289 290 289 288 289 289 288 288 289 289 288 287 286 285 285 286
283 281 277 275 271 275 277 273 275 278 281 282 283 283 284 284 284 284 285 286 286 286 286 286 285 285 283 282 283 282 281 280 278 280 281 276 275 278 280 276 270 267 267 265 265 267 272 279 281 283 285 286 284 284 286 287 286 286 287 288 288 288 288 288 288 288 289 289 288 289 289 289 289 290 290 289 289 289 288 288 289 287 286 287 287 286 286
279 279 278 275 272 275 276 278 281 282 282 283 284 283 283 283 284 285 287 286 286 286 285 285 283 284 283 284 283 280 279 280 279 280 281 279 280 276 271 269 267 266 268 269 273 276 279 282 284 285 287 286 284 285 286 288 289 288 287 287 288 288 288 288 288 288 288 288 288 288 289 289 289 289 289 290 290 290 290 289 289 287 286 286 285 286 285
282 280 277 274 275 276 278 280 282 282 283 283 282 284 284 284 284 285 286 285 286 287 286 285 282 282 280 281 279 279 278 281 275 275 280 276 273 268 266 266 263 268 272 274 279 281 281 285 286 284 285 285 285 286 287 288 288 288 288 288 288 289 289 288 289 289 288 288 289 289 289 289 289 289 289 288 288 290 291 290 288 287 286 286 286 285 285
283 281 281 278 278 278 279 281 282 280 282 282 282 283 283 283 283 286 286 286 287 287 286 285 285 283 281 281 277 277 276 277 278 277 274 271 272 270 269 267 266 270 275 277 278 281 284 286 285 284 286 286 286 287 287 288 286 286 288 288 288 288 288 289 289 289 289 289 289 289 289 289 288 288 289 289 290 290 289 288 288 287 287 286 286 286 285
286 284 282 283 281 279 279 275 276 276 279 282 282 282 283 284 285 286 287 287 287 285 283 281 280 280 280 279 276 273 276 280 277 274 274 274 274 273 272 272 275 277 280 284 284 284 285 285 285 285 285 286 287 288 288 288 288 288 288 288 288 287 287 288 288 289 289 289 289 285 288 288 289 290 290 290 289 288 289 287 286 287 287 286 286 286 285
283 280 281 282 283 283 284 283 282 283 283 284 284 285 284 284 285 286 287 287 285 282 280 280 280 279 277 276 277 279 281 278 274 272 272 275 275 274 272 276 281 283 283 284 285 286 285 285 285 284 285 286 286 288 288 288 288 288 287 288 288 287 287 287 287 288 288 289 288 289 289 290 290 289 288 288 288 288 288 289 289 287 286 286 286 286 286
Wind_Speed
26 27 28 27 26 29 29 30 29 26 22 6 5 3 4 5 4 4 6 3 4 2 2 2 1 2 2 5 1 2 1 1 2 1 3 1 2 2 2 2 3 2 2 0 2 1 2 0 1 1 4 3 3 6 6 4 4 2 2 2 1 2 2 3 2 2 2 6 4 3 3 2 0 6 2 2 3 1 2 1 5 5 3 3 2 2 3
26 27 27 26 27 29 29 28 26 23 19 6 4 3 3 0 1 4 8 8 3 5 2 2 3 3 4 3 2 2 1 4 5 2 4 3 4 1 2 1 3 2 1 0 1 1 3 2 1 2 2 4 3 6 9 3 3 3 1 1 2 1 2 1 3 1 1 1 0 1 0 2 2 3 2 2 4 4 2 4 1 3 4 1 6 5 2
26 26 26 26 28 29 28 28 27 22 20 5 1 2 1 0 2 1 5 9 7 5 2 3 1 2 3 3 9 9 4 3 2 1 4 3 3 1 1 2 5 1 2 2 1 4 2 1 4 1 2 2 2 3 5 4 8 3 5 6 1 2 1 1 4 6 7 7 6 4 3 2 2 1 2 1 4 9 4 3 2 3 2 2 2 3 4
25 26 25 26 27 30 28 28 28 25 21 5 2 1 1 4 1 5 6 5 6 5 0 1 2 1 2 4 4 5 4 3 4 1 7 5 2 4 3 2 3 3 1 3 4 4 4 1 2 3 3 3 3 3 6 4 6 10 13 9 6 3 2 4 2 3 4 2 2 2 3 1 3 1 3 3 2 2 3 3 2 4 4 3 1 2 10
25 25 26 25 28 29 29 27 28 28 23 10 3 4 3 2 4 2 4 5 6 4 6 8 6 1 2 3 6 7 7 4 1 6 2 9 5 2 9 6 2 4 2 2 3 3 2 4 5 6 3 2 2 6 4 2 10 4 7 7 8 4 4 6 6 10 5 1 1 3 3 4 5 3 4 4 4 5 4 2 1 4 8 2 3 2 7
25 26 25 25 28 30 27 27 28 28 27 15 3 5 4 4 1 1 1 2 4 5 5 9 6 11 4 5 4 6 7 11 5 5 5 1 8 2 2 11 9 2 2 1 3 6 3 6 3 4 2 2 5 2 7 8 9 5 3 3 5 6 2 2 5 6 6 5 3 5 9 7 5 6 5 6 7 5 4 2 3 1 1 1 8 6 6
25 25 24 24 27 29 28 28 27 28 25 15 2 6 3 3 0 1 3 1 2 3 3 6 5 8 10 3 8 9 11 11 7 3 6 5 7 9 3 8 10 11 4 1 4 6 1 3 2 3 5 5 4 3 3 2 9 7 4 4 2 5 2 1 2 3 9 11 9 5 9 4 6 10 8 6 9 9 9 7 4 4 6 7 12 12 10
24 24 24 24 27 29 29 27 28 27 24 9 9 6 1 3 2 2 4 4 3 6 3 4 5 7 10 3 8 5 9 9 10 7 7 3 5 7 5 6 6 8 12 7 6 4 5 3 2 1 3 2 5 3 2 4 5 6 3 2 4 5 2 4 2 5 6 7 7 7 7 6 5 5 5 6 6 11 8 7 7 12 12 9 10 12 9
23 24 24 24 25 28 28 28 26 26 20 7 7 3 4 0 0 1 1 4 6 4 5 4 5 4 7 6 7 6 10 8 9 5 5 8 4 6 5 5 5 1 7 10 7 2 4 5 5 5 3 1 2 3 1 3 4 7 3 3 2 2 4 2 4 3 2 2 4 5 7 9 6 4 5 4 4 4 1 2 2 2 8 6 8 7 5
22 23 24 23 24 26 27 26 26 23 15 5 1 4 2 0 1 1 1 4 5 4 5 6 1 6 3 4 3 3 8 6 7 1 4 5 6 6 6 5 1 6 11 11 9 10 6 8 8 6 5 6 4 2 4 3 3 3 3 1 2 3 8 6 5 5 3 3 2 2 3 4 7 4 1 3 4 4 5 4 5 4 4 9 5 4 8
22 23 23 22 23 24 24 24 22 20 10 6 4 2 3 3 1 2 2 5 3 6 2 6 7 3 4 7 3 2 3 7 9 4 2 6 9 8 5 8 3 3 6 7 10 9 11 8 8 4 4 5 3 2 1 3 1 1 1 1 1 3 9 6 5 5 2 6 5 2 5 4 5 4 4 3 2 0 2 3 4 4 3 2 4 10 11
21 22 22 22 22 23 25 24 22 21 9 2 1 2 2 1 2 2 3 4 2 4 4 5 4 3 6 9 4 4 6 7 6 4 2 3 4 7 9 9 6 2 6 8 8 9 5 2 3 3 2 1 4 5 6 9 6 4 1 1 3 5 3 3 1 4 5 6 6 4 5 6 5 6 3 5 3 7 12 10 8 6 7 13 15 12 10
20 21 21 21 22 22 24 23 23 21 15 2 2 4 3 1 1 3 3 4 4 5 2 3 3 2 3 6 7 5 5 5 4 4 2 3 5 7 6 5 5 6 12 14 12 7 2 1 1 0 1 2 2 5 12 11 9 4 4 4 3 2 3 2 2 2 4 2 3 4 4 4 5 4 4 6 8 7 10 12 8 6 4 7 13 12 11
20 21 21 20 21 22 22 24 23 22 19 6 4 4 3 1 1 3 2 4 3 3 2 2 5 9 9 8 4 5 3 7 6 0 5 4 5 7 4 5 7 9 9 6 4 2 1 2 1 1 2 0 1 0 3 3 8 9 9 8 4 7 5 2 3 2 4 2 4 0 3 2 2 3 4 2 4 2 1 3 3 4 2 5 13 12 11
20 21 21 20 21 21 22 23 23 22 20 10 1 2 5 4 1 4 2 3 5 2 4 5 6 7 6 6 6 5 6 5 6 3 3 3 1 3 4 9 10 9 6 1 4 3 2 0 0 0 1 2 3 1 2 2 2 6 6 5 5 2 0 0 2 0 0 4 3 1 1 2 4 3 3 0 1 1 2 4 3 2 2 3 11 12 11
20 20 20 20 21 21 22 22 23 22 21 12 3 3 5 3 1 3 4 3 3 5 7 3 3 3 3 4 4 7 4 4 4 3 4 4 3 8 4 7 9 7 4 4 2 2 2 0 1 1 0 1 2 1 0 3 1 2 5 8 7 6 7 4 0 2 2 1 3 3 4 1 4 5 2 2 3 2 2 1 4 3 3 4 6 9 6
19 19 20 20 21 21 21 21 22 23 21 16 4 3 6 6 2 2 5 5 5 6 3 3 1 0 1 3 4 4 5 4 4 3 4 5 6 5 10 10 5 4 8 3 4 2 3 4 2 2 2 2 1 2 2 2 2 4 6 4 10 8 4 2 2 2 1 0 2 2 2 2 3 3 4 4 1 3 2 3 4 8 4 4 4 6 6
19 19 19 20 20 20 21 21 21 23 20 16 4 4 4 5 2 1 5 4 6 4 4 1 3 4 7 2 4 3 1 1 1 1 1 3 3 6 8 8 10 4 4 3 3 3 3 3 2 3 2 3 2 2 1 3 2 3 4 5 4 4 2 4 1 2 1 2 1 1 0 1 3 3 5 4 3 2 5 4 4 5 5 3 4 6 4
18 18 19 19 19 20 20 20 21 22 22 19 4 2 5 6 6 4 7 4 4 4 4 1 1 3 1 1 2 0 1 1 2 1 4 2 3 5 3 3 2 6 8 2 4 3 2 2 1 2 1 3 3 2 2 2 3 2 2 1 2 3 1 1 1 1 2 1 1 0 1 1 1 3 4 4 2 5 3 3 1 7 6 5 3 5 3
18 18 18 19 19 19 20 20 20 21 21 19 7 4 2 4 5 6 4 5 1 4 2 3 3 5 1 4 6 5 2 2 2 3 3 3 6 5 0 3 2 4 4 3 3 2 2 2 2 1 2 3 3 1 3 3 2 3 2 2 1 3 1 1 1 1 1 1 3 1 3 2 3 5 0 2 1 2 6 7 3 3 6 6 4 3 3
17 17 17 18 18 19 20 20 20 20 20 19 7 1 3 3 5 5 3 4 5 4 3 1 1 1 1 2 2 5 3 5 5 5 2 3 4 1 3 0 5 4 4 3 2 2 1 1 2 2 1 1 3 1 1 1 2 3 4 3 3 3 0 1 0 1 0 1 2 1 3 3 4 2 1 2 5 6 5 6 7 3 4 4 4 2 2
16 16 16 17 18 18 19 20 20 20 20 19 9 2 4 5 2 3 1 2 4 3 3 1 1 2 3 1 3 5 1 1 1 2 3 3 5 4 3 1 2 1 2 1 1 1 1 1 1 1 2 2 1 2 1 0 1 2 1 2 1 7 3 2 1 3 1 1 2 1 1 3 4 4 7 7 7 4 2 4 6 5 3 2 3 5 4
15 15 16 16 17 17 19 19 19 19 19 17 8 5 3 5 6 4 1 5 2 1 2 2 1 2 1 2 2 2 1 0 3 1 3 1 1 2 2 3 3 1 0 1 2 1 1 1 2 1 2 3 2 2 3 2 1 2 2 4 3 2 1 1 4 5 6 7 5 2 2 4 7 7 5 6 5 5 5 5 4 4 3 2 3 3 4
15 15 15 15 16 17 18 18 18 18 18 16 6 3 2 2 4 4 4 5 2 3 2 4 4 2 3 6 3 3 0 1 2 2 1 2 1 1 1 2 2 1 0 2 0 1 0 1 2 1 2 1 1 1 1 2 2 1 1 2 2 1 1 1 4 5 1 3 2 2 3 1 4 4 4 4 4 3 3 3 3 2 2 2 3 3 4
15 14 14 14 15 16 17 17 17 17 17 16 8 2 2 2 3 4 1 1 2 2 2 2 1 2 3 3 3 2 1 0 1 1 2 4 5 3 2 2 1 2 3 1 2 2 1 1 1 1 2 1 2 1 2 1 1 1 1 1 0 2 1 4 4 2 1 3 7 3 1 1 1 2 2 2 1 1 1 1 2 2 3 3 3 2 4
15 14 13 13 14 15 15 15 15 15 15 13 7 4 5 3 4 1 5 5 3 2 2 1 0 2 4 1 4 3 4 3 1 4 6 2 2 2 4 2 1 2 2 2 2 0 1 2 1 1 1 1 2 0 1 3 2 1 1 2 2 1 3 1 1 2 3 4 2 1 2 3 3 4 2 1 2 3 3 1 2 3 3 4 4 4 2
15 13 12 12 13 14 14 15 15 14 14 10 4 2 2 2 3 5 3 1 1 1 2 1 2 5 4 4 2 3 3 3 2 4 4 5 4 3 3 3 3 1 2 2 2 2 2 1 1 3 2 2 1 2 1 1 0 1 1 2 0 2 3 3 3 4 2 3 6 8 3 2 6 7 5 4 2 3 3 3 3 3 3 2 2 2 1
14 14 13 11 12 13 14 14 14 13 13 7 2 2 1 3 3 2 0 1 2 2 2 1 0 3 2 1 3 2 3 3 2 4 4 3 4 3 4 4 3 2 3 2 2 2 1 2 3 0 0 1 1 1 1 1 1 1 2 1 0 1 4 5 2 2 2 2 6 7 3 3 1 3 5 3 3 3 3 3 2 2 2 3 3 2 1
13 13 13 12 13 14 14 14 13 11 12 5 1 2 1 1 2 2 2 1 3 4 2 0 2 2 1 0 7 5 3 5 5 3 4 4 4 4 4 4 3 3 3 3 2 0 0 1 0 1 1 0 0 1 1 1 1 0 0 1 2 1 1 0 2 2 2 1 6 6 1 3 3 2 2 3 2 3 3 2 1 2 3 4 3 2 2
13 12 12 13 14 14 14 13 11 10 9 2 2 3 3 1 1 2 3 3 2 2 1 1 2 0 2 2 4 2 5 4 5 5 7 5 4 3 1 2 2 1 2 1 0 1 0 0 0 1 1 2 0 0 1 1 0 0 0 2 2 0 1 1 1 1 2 2 6 4 3 5 3 3 2 2 2 2 1 1 1 2 3 4 2 2 2
13 12 13 14 14 13 13 12 10 7 4 2 2 1 2 1 1 1 3 3 1 2 2 1 0 2 1 1 1 4 6 5 5 4 4 2 2 1 1 1 2 1 0 0 0 0 0 1 0 1 0 2 1 0 2 1 0 1 2 3 3 3 2 3 2 1 2 5 5 3 4 3 1 2 2 2 3 2 2 0 2 1 2 2 2 2 2
14 13 13 13 13 13 11 10 7 4 2 2 3 2 2 1 4 5 4 1 1 1 1 1 1 1 1 3 2 1 2 2 2 2 2 2 1 2 2 2 1 2 2 1 0 1 0 0 0 1 0 2 2 1 1 1 1 1 1 3 3 3 2 3 3 3 4 7 10 6 4 2 3 2 1 4 3 2 1 1 2 1 1 1 0 1 2
15 13 13 13 12 11 10 7 4 1 0 2 2 1 1 3 6 4 1 1 3 2 1 3 1 0 0 0 4 2 3 1 3 4 1 3 3 3 1 2 1 2 3 1 1 1 0 0 0 0 2 2 0 0 2 1 3 2 2 1 1 2 3 3 3 3 5 2 1 1 2 3 4 5 1 3 3 2 3 3 2 1 1 2 3 4 5
16 14 12 12 10 9 7 4 2 4 1 1 3 2 1 5 5 1 0 5 4 1 1 2 1 0 1 3 2 0 4 2 2 2 2 2 1 1 1 2 2 0 3 2 0 0 1 0 0 0 1 1 1 0 1 3 4 3 1 1 2 2 3 4 3 4 3 2 1 3 3 2 3 4 3 3 3 1 2 2 3 3 4 4 4 5 5
15 12 10 8 7 2 5 3 3 2 2 1 0 2 3 10 6 1 3 1 1 1 2 1 1 1 0 2 1 1 2 1 1 2 2 2 2 3 2 1 1 1 1 1 1 1 0 0 0 1 0 1 0 1 2 4 4 1 1 2 3 4 4 3 3 3 3 2 2 3 3 4 5 5 5 5 4 4 4 4 4 4 4 5 5 6 4
13 9 6 2 4 4 2 2 4 2 3 1 2 4 11 7 4 3 3 3 2 2 1 0 0 0 1 0 0 0 2 2 1 1 1 2 1 2 1 1 0 1 1 2 0 0 0 1 1 0 0 0 2 2 2 3 3 2 3 4 7 8 6 6 4 6 4 3 3 3 3 3 4 4 3 4 4 5 4 5 4 4 6 5 6 5 4
11 4 3 3 1 2 3 0 2 2 1 4 8 11 8 1 1 1 2 2 2 2 2 2 1 2 1 0 1 2 2 1 3 1 2 2 2 1 2 1 1 2 1 0 1 1 1 0 0 0 0 1 2 3 4 3 4 4 3 4 6 4 3 3 5 8 7 4 3 1 1 3 3 2 3 4 5 4 4 5 6 5 6 6 6 6 6
5 4 3 2 2 2 1 1 1 4 9 10 6 1 2 4 0 2 2 2 2 3 3 1 0 1 0 0 0 1 0 0 1 1 0 0 1 0 0 1 1 1 1 1 1 2 1 2 1 0 2 3 4 5 5 4 4 4 5 3 4 6 5 5 8 8 7 4 3 3 2 3 4 4 5 5 6 6 6 5 4 4 4 4 5 5 5
4 3 3 3 2 0 1 1 5 12 5 1 2 1 1 1 1 1 1 1 1 1 1 0 1 1 1 1 2 1 2 1 0 1 1 1 0 1 1 1 0 0 1 1 0 1 1 0 0 1 2 2 2 1 1 3 3 3 4 3 2 5 5 5 7 7 6 3 1 2 3 4 5 6 5 4 5 5 4 3 4 4 4 4 4 3 3
5 6 2 2 1 1 2 4 9 5 1 1 2 1 0 1 1 0 1 1 1 0 0 1 0 0 1 2 1 1 1 2 1 1 0 0 1 1 0 0 0 0 0 0 1 3 1 1 0 1 2 1 2 1 3 5 4 2 0 2 3 6 6 6 5 0 2 3 3 2 2 3 3 3 5 5 4 3 5 5 4 3 3 4 2 3 3
3 1 2 1 2 3 5 7 5 2 2 1 1 2 1 1 1 0 0 1 0 0 0 1 1 1 1 0 1 1 1 2 1 1 0 1 0 1 1 0 0 0 0 1 0 1 1 0 0 1 2 1 3 4 4 5 3 2 1 1 3 4 6 4 3 3 4 3 2 2 2 2 3 3 4 5 4 4 4 3 3 4 3 3 3 2 1
1 1 1 1 3 4 4 1 2 1 1 0 2 1 1 1 1 1 0 2 1 0 1 0 1 2 2 1 1 1 0 1 1 0 1 0 0 0 0 1 1 0 1 0 1 0 0 1 1 2 2 5 4 3 4 5 3 0 2 3 4 5 5 5 4 3 3 3 3 2 2 3 3 3 4 4 4 4 3 3 4 4 4 3 2 1 2
3 2 1 1 1 1 1 1 2 2 1 2 2 1 2 2 1 1 1 0 0 0 1 1 0 1 0 1 1 1 0 1 1 0 0 0 0 1 1 1 1 0 0 1 0 1 0 1 1 3 3 4 5 5 4 4 4 3 1 1 2 3 4 5 4 4 4 4 4 3 3 4 4 3 2 3 2 2 3 4 5 4 3 2 2 2 2
2 1 1 2 1 1 1 0 1 1 2 1 2 1 1 1 0 1 0 0 1 0 1 2 0 1 0 1 0 0 0 1 1 1 1 0 0 0 0 0 1 1 1 0 1 1 1 1 4 5 4 4 4 4 4 4 2 1 0 2 2 2 3 3 2 2 3 2 1 2 2 3 2 1 2 2 4 5 3 3 3 3 3 2 2 2 2
1 1 2 1 1 1 1 1 2 2 1 1 1 1 2 1 1 1 0 0 1 3 2 0 1 1 0 0 1 0 0 0 0 0 0 0 0 0 0 1 0 2 1 2 1 1 0 2 1 3 4 4 5 3 3 3 2 2 1 2 4 4 4 5 4 3 3 4 5 4 4 4 4 4 4 4 3 3 3 4 2 2 2 3 2 2 3
2 1 1 2 2 2 2 1 1 1 1 1 0 3 2 1 1 2 1 1 2 2 3 3 1 2 0 1 0 0 0 0 0 0 0 1 0 1 0 0 1 0 1 1 1 2 2 2 1 2 3 4 5 4 3 2 2 1 2 4 5 6 6 5 4 5 5 5 4 5 5 4 5 5 5 4 4 4 4 4 2 3 2 2 4 3 3
2 1 2 2 1 1 0 1 0 1 1 2 1 2 0 1 1 3 2 1 2 2 3 2 2 2 1 0 0 0 1 1 0 0 1 1 1 0 1 0 2 0 1 2 3 4 3 3 3 4 5 5 4 3 4 3 1 3 5 5 3 4 4 6 6 7 6 5 5 5 5 5 5 4 3 3 4 4 4 4 3 3 4 5 2 2 3
1 1 1 1 1 1 1 0 1 1 1 0 0 0 1 0 1 1 1 2 2 1 2 0 0 0 0 0 0 0 0 0 1 1 0 0 0 1 1 1 1 2 2 2 3 2 2 2 2 2 3 2 2 4 5 5 3 3 4 5 6 6 6 6 6 6 6 7 7 6 6 6 5 5 5 5 4 3 3 3 3 2 3 3 2 3 3
2 1 1 1 1 1 1 0 0 2 1 1 1 1 1 1 2 3 3 0 1 1 1 1 0 0 2 0 0 0 1 0 0 1 0 1 0 2 1 2 1 1 3 4 3 2 2 3 3 3 4 4 3 3 5 4 5 5 5 5 6 6 5 6 7 6 7 7 7 6 6 6 5 5 4 3 4 5 2 2 2 2 3 4 4 4 3
1 1 1 2 0 0 0 0 1 1 0 0 1 1 1 1 3 3 1 0 1 1 1 0 0 0 1 0 1 0 1 0 1 0 1 1 1 1 1 2 5 5 1 2 2 3 4 3 2 3 4 4 5 4 4 5 4 5 5 5 5 4 5 6 6 6 7 7 8 8 6 4 5 5 6 7 5 2 2 2 2 3 3 4 4 4 4
0 0 1 0 1 1 4 2 3 1 0 1 1 1 3 2 1 2 1 0 1 1 1 1 0 0 1 1 2 0 1 1 1 2 2 2 1 2 2 3 4 4 4 2 3 2 3 2 2 2 3 5 5 6 5 6 5 5 5 5 5 4 5 6 6 6 7 7 7 6 6 7 7 7 5 3 3 3 3 3 3 3 4 4 4 4 4
1 0 0 1 1 1 1 3 0 2 4 3 2 2 2 2 2 2 0 1 1 0 1 0 1 0 0 3 3 1 1 0 1 1 1 2 3 2 3 4 6 4 4 4 4 3 3 2 3 4 5 6 7 6 5 4 4 5 5 5 5 5 6 5 6 6 6 5 7 8 8 7 5 3 3 4 4 3 5 5 4 4 4 4 4 4 3
Wind_Direction
356 354 351 348 344 346 344 344 345 346 348 4 350 304 21 26 60 274 323 348 199 347 72 315 28 314 305 307 240 309 343 330 287 11 358 27 31 315 206 230 207 234 249 235 227 221 217 126 244 75 112 78 342 302 297 150 85 77 54 31 120 173 77 98 42 78 269 265 244 296 9 314 106 55 62 166 164 192 211 157 162 150 135 173 140 194 117
357 355 352 347 346 347 345 343 344 347 358 335 296 41 92 30 24 321 3 354 162 68 57 344 329 308 313 30 355 336 1 11 1 69 31 19 354 341 320 67 68 317 23 119 188 357 193 20 32 110 35 110 234 14 350 60 50 353 254 245 217 181 292 121 128 114 344 353 285 253 153 95 33 112 82 21 92 90 108 99 346 121 201 304 172 189 167
357 355 353 348 348 350 347 345 345 348 355 10 188 74 183 258 216 255 303 348 34 65 308 306 283 296 339 346 29 355 350 29 351 34 44 10 18 267 14 12 318 330 12 79 92 40 350 108 3 8 74 79 330 42 10 352 92 85 103 99 205 74 92 143 170 169 172 183 194 185 186 152 3 21 116 337 130 132 153 151 169 202 149 165 201 108 87
358 357 354 349 349 353 351 347 346 349 357 7 97 128 33 22 34 331 333 20 31 78 58 142 295 301 2 47 4 356 333 332 4 59 71 28 57 40 313 331 355 26 22 58 24 21 24 3 73 18 15 1 12 10 338 39 109 100 81 62 68 103 96 39 337 226 196 58 37 11 311 113 154 57 13 38 355 108 82 76 155 210 151 178 9 104 141
358 358 356 350 353 356 353 350 348 349 351 6 127 44 70 134 61 336 348 317 47 27 16 11 352 334 269 76 355 357 352 291 1 20 87 25 15 39 42 15 17 350 21 119 77 28 337 29 93 20 335 309 286 303 335 343 11 58 84 119 87 56 42 14 42 43 24 314 130 332 8 87 17 38 354 4 354 303 108 179 183 102 131 199 100 143 121
360 359 356 352 355 358 357 354 351 350 347 353 125 47 353 62 284 198 306 2 350 351 12 2 351 15 47 60 349 5 16 35 26 332 32 265 22 21 19 29 39 335 263 60 75 352 20 35 21 318 15 305 336 24 33 51 339 356 80 318 109 117 92 303 88 41 33 15 32 96 75 61 68 48 8 5 345 356 98 84 81 278 212 193 130 123 100
0 359 356 354 358 1 2 359 353 352 346 346 80 79 350 87 33 179 306 105 352 344 276 330 358 30 21 109 20 20 23 37 16 357 318 18 13 6 87 13 10 19 33 106 89 6 42 35 0 35 343 33 330 43 333 58 13 15 92 34 100 103 62 48 107 91 27 17 13 10 91 113 59 29 27 23 48 53 63 67 24 67 83 80 116 98 89
0 359 356 355 359 5 5 2 358 353 347 332 68 44 6 30 358 19 12 90 55 357 346 348 359 48 6 42 10 15 15 24 3 13 12 14 356 359 68 357 1 32 49 49 75 31 27 37 12 4 347 324 26 50 40 320 337 16 51 39 330 104 241 156 48 58 357 346 1 28 41 48 61 50 46 47 63 66 56 94 92 87 77 78 99 100 96
1 360 357 357 359 5 7 6 4 356 349 47 43 58 25 349 59 296 107 47 359 343 13 359 18 38 5 26 353 8 10 7 344 62 42 48 11 355 336 309 307 25 47 60 79 34 316 274 257 269 292 351 8 2 107 24 331 354 28 40 19 78 153 78 115 106 291 284 27 29 42 63 61 3 342 31 60 78 24 66 319 275 141 130 110 99 120
2 1 359 358 358 3 7 8 7 3 350 95 34 49 320 144 192 37 120 80 347 14 315 13 348 43 4 355 335 356 352 327 335 122 52 55 38 356 327 320 251 25 29 17 351 323 278 260 264 274 260 266 289 283 289 311 288 349 26 338 123 162 140 166 155 165 226 176 145 96 96 26 320 250 280 2 11 75 103 59 25 17 130 138 168 122 125
4 2 1 359 357 0 6 9 10 12 11 42 32 44 360 12 338 358 42 85 5 12 353 23 38 28 330 3 345 308 335 356 7 50 357 349 12 2 343 15 19 65 40 330 315 289 273 266 275 274 258 252 256 298 210 103 98 252 346 74 86 154 156 158 164 175 141 141 131 145 158 200 221 29 297 276 94 328 83 53 6 3 350 79 33 116 131
4 4 2 360 358 359 5 9 11 16 31 26 167 79 12 143 95 103 81 83 49 333 47 60 7 319 6 343 344 1 352 1 345 337 330 331 312 340 13 25 18 41 351 317 308 292 254 228 178 134 106 51 142 108 84 63 48 37 318 198 111 125 114 117 35 124 140 127 132 138 194 210 23 318 330 232 245 106 103 84 59 60 104 114 108 114 128
5 5 4 2 359 357 2 6 10 13 15 34 25 48 346 144 98 81 89 97 52 357 6 46 359 325 316 342 17 2 338 316 315 312 230 352 333 20 36 22 7 302 319 315 322 323 131 311 17 349 355 100 150 69 49 41 32 30 56 28 108 135 130 143 65 85 69 121 160 169 217 360 333 38 55 102 117 135 107 76 57 49 64 112 119 125 126
8 7 6 4 0 357 358 3 8 10 12 11 47 37 352 284 45 63 97 95 39 6 248 250 346 1 3 17 356 321 304 6 341 346 20 10 350 355 343 8 326 294 302 294 316 351 110 76 77 99 111 12 43 262 53 74 39 28 21 16 3 111 103 108 105 309 167 166 182 52 354 274 84 97 158 188 167 168 306 123 70 23 25 122 124 126 132
9 7 6 4 2 358 357 360 5 8 9 13 152 68 29 23 49 116 177 85 107 51 29 38 332 327 334 0 4 5 36 351 2 359 330 271 329 351 307 325 324 322 311 270 359 36 71 82 81 117 138 184 214 192 22 65 45 33 35 44 49 16 26 353 143 98 151 145 138 83 59 237 195 160 67 86 300 2 217 100 100 58 62 114 132 135 143
7 6 5 5 2 359 357 358 1 6 8 5 109 27 59 26 106 75 96 125 130 50 9 335 268 278 327 360 352 37 4 347 348 292 337 11 330 335 325 329 324 319 345 65 51 42 12 18 185 110 183 31 6 352 98 2 69 122 44 29 52 51 64 82 250 129 138 161 166 183 187 200 21 111 99 350 335 233 250 159 143 133 144 165 145 138 148
5 4 3 2 0 358 358 357 359 4 7 7 356 13 32 5 342 112 84 55 65 96 246 312 64 137 335 5 22 39 1 10 350 10 354 354 336 299 304 335 294 14 15 81 13 36 39 55 54 78 86 319 342 24 346 39 357 352 356 30 40 40 18 3 86 59 10 112 179 219 196 75 62 344 318 327 354 158 196 200 192 149 190 154 154 134 136
4 4 1 359 358 358 358 357 358 2 5 7 30 39 16 352 37 142 53 75 100 72 357 272 343 23 34 355 15 325 284 351 46 167 254 312 318 354 334 345 348 19 2 68 355 68 54 42 48 46 59 34 287 298 74 9 43 2 353 357 10 5 23 24 149 121 88 88 59 356 217 233 273 306 320 337 220 220 197 219 115 141 144 150 117 109 104
3 2 0 358 356 358 358 357 358 1 3 4 3 42 35 5 0 61 105 80 61 90 301 316 244 84 132 84 81 329 30 23 295 27 333 354 34 345 294 286 343 352 4 51 42 51 45 71 76 13 10 13 15 53 341 36 354 341 311 41 67 59 60 107 123 82 140 121 114 81 332 254 343 305 303 290 188 184 221 57 60 125 130 131 126 116 111
4 1 359 357 356 357 358 357 358 0 1 4 11 93 257 353 19 18 80 90 34 79 342 3 352 40 280 54 36 31 15 45 13 44 23 356 334 349 213 15 39 353 360 10 58 357 42 41 8 317 45 40 52 353 74 64 33 8 21 333 42 6 21 40 74 123 111 90 87 126 229 103 7 313 283 17 253 37 105 128 99 119 123 137 140 111 123
359 359 358 356 355 357 357 357 358 359 0 1 15 74 27 348 24 20 41 126 102 88 23 316 170 296 136 116 178 139 91 44 6 13 9 285 310 280 67 277 328 360 15 7 37 24 18 41 28 40 23 325 358 239 97 123 74 61 11 42 65 355 90 98 158 312 290 144 170 143 15 352 344 283 143 79 65 118 128 116 123 133 147 132 132 114 121
354 354 355 354 353 355 357 357 356 358 359 360 6 72 56 340 26 15 339 66 86 89 110 313 282 263 235 252 194 177 104 216 255 225 336 22 4 34 113 42 1 359 22 254 81 114 30 359 212 39 51 41 48 53 282 105 95 1 33 305 114 359 37 340 109 36 10 55 92 93 355 351 23 80 88 94 98 114 132 86 100 121 104 126 99 111 128
352 351 352 351 351 353 355 356 356 357 357 1 11 65 56 332 342 351 219 67 18 86 352 10 4 289 309 244 212 228 328 358 136 91 152 90 76 42 49 29 42 325 207 287 12 64 19 356 57 24 96 35 25 76 72 52 94 3 54 9 80 79 77 10 77 80 98 56 49 45 32 59 67 52 54 84 82 62 66 75 82 81 85 92 82 96 113
352 350 348 348 348 350 352 355 357 357 356 1 24 9 29 0 326 339 36 67 96 98 358 12 66 357 306 315 337 2 108 103 287 299 215 185 76 46 213 236 220 214 90 10 302 308 72 23 55 293 70 12 264 35 82 78 47 15 51 93 28 35 348 96 103 150 118 107 193 97 106 85 40 53 38 31 38 33 42 60 56 21 62 81 77 85 83
351 349 345 344 344 346 350 353 356 357 357 359 3 101 187 37 15 360 97 129 31 89 116 324 334 261 300 292 285 274 30 240 276 152 110 65 89 93 70 17 188 10 7 30 167 113 47 96 127 113 87 22 297 80 330 70 110 317 90 53 277 74 348 81 96 99 61 107 154 162 107 272 280 195 147 148 153 105 40 23 8 45 68 65 62 57 58
350 348 343 340 340 343 345 351 353 356 355 6 25 28 51 16 313 208 71 76 99 107 98 33 295 325 305 330 45 315 308 10 48 58 48 56 51 36 137 167 114 35 95 84 217 101 96 76 58 43 80 89 280 113 80 9 61 359 1 82 4 338 284 131 183 97 91 65 83 164 200 246 209 195 243 25 135 149 124 91 109 113 98 77 60 41 34
347 347 343 340 337 339 342 346 353 353 355 3 26 23 68 101 332 20 50 323 131 1 31 96 297 308 4 2 302 327 1 352 20 70 59 32 60 64 88 94 90 32 80 83 47 116 71 96 46 56 11 50 350 46 328 165 105 113 106 96 129 186 132 117 127 108 145 185 172 171 163 189 191 199 193 166 162 149 132 126 126 127 121 114 102 69 38
344 342 339 339 339 338 340 344 348 351 351 12 54 60 295 62 6 344 56 108 61 162 152 248 171 318 287 228 347 17 335 359 68 82 78 41 40 54 64 59 73 22 16 357 47 35 3 49 63 145 280 242 226 75 35 122 201 120 72 77 258 261 145 166 156 173 166 198 168 174 67 64 22 162 158 142 140 162 160 169 148 116 107 157 169 165 173
336 336 333 336 338 337 337 341 345 349 350 1 33 356 342 61 308 353 28 143 101 95 87 236 264 354 59 275 323 345 6 37 24 49 68 43 44 47 60 43 66 115 99 81 102 112 32 43 265 3 31 47 333 63 272 25 27 333 26 107 177 359 190 251 346 135 7 352 162 155 62 58 86 124 121 124 147 178 165 118 109 135 155 167 187 197 267
335 331 330 331 331 331 332 336 342 349 351 1 57 45 37 304 312 1 9 15 73 118 90 110 98 142 307 315 303 302 325 1 26 41 52 49 47 44 36 90 84 45 61 64 32 29 16 328 311 244 288 274 283 78 68 160 199 7 39 277 251 186 204 252 236 333 95 105 140 134 94 104 66 80 73 101 162 202 169 147 109 153 159 181 206 182 180
332 329 329 326 326 326 325 332 341 359 16 66 73 52 45 52 322 151 349 25 309 99 125 107 103 306 359 78 224 337 354 339 2 27 39 55 58 39 17 131 81 295 90 77 5 70 221 49 30 67 10 46 84 120 134 176 295 300 192 196 146 148 136 130 181 304 109 108 107 100 86 95 105 128 141 147 154 166 132 90 150 167 112 169 221 207 225
331 327 323 320 319 320 321 328 342 34 45 92 96 145 164 177 277 315 337 349 189 46 63 70 359 19 332 311 317 318 318 21 0 1 43 348 33 17 24 16 73 25 32 100 103 164 52 61 270 338 313 21 30 102 150 150 191 256 227 189 188 154 125 138 127 112 105 123 123 113 131 158 200 212 190 177 155 150 171 192 162 109 144 227 336 264 273
329 324 317 312 314 314 317 325 340 33 215 231 261 98 218 283 297 312 21 239 56 77 110 83 100 160 254 59 321 352 353 332 33 3 62 7 1 347 46 8 46 79 19 125 23 14 89 176 304 103 66 341 102 142 220 203 228 218 245 27 90 153 142 106 108 121 143 145 310 167 165 177 203 204 217 142 146 161 180 179 144 133 188 221 242 246 249
326 321 314 310 308 312 318 335 65 133 68 79 93 80 347 342 334 103 112 73 91 142 65 104 104 95 277 303 142 33 353 17 359 344 18 51 323 310 350 348 9 98 16 8 355 183 132 221 294 341 254 49 21 187 258 252 248 266 308 278 132 126 124 123 129 147 162 156 86 67 89 92 79 104 124 150 163 132 99 114 153 187 214 235 249 254 256
325 319 313 310 312 8 72 74 71 46 118 17 219 240 285 335 335 44 15 107 77 351 29 29 76 98 22 20 11 289 346 285 338 27 348 2 37 14 344 352 337 51 65 36 66 35 357 33 62 214 149 337 300 270 246 274 280 228 162 145 149 133 108 149 202 172 140 128 126 114 125 144 142 164 178 177 175 164 174 186 200 217 236 250 259 262 248
330 332 335 13 86 116 92 46 45 39 33 2 281 329 331 348 58 62 79 66 32 150 98 330 24 115 132 119 43 9 298 87 41 281 209 292 330 68 37 67 22 98 319 357 309 56 270 39 290 270 41 270 220 218 245 229 275 277 223 203 184 182 177 186 150 132 119 109 105 117 143 179 200 196 177 183 178 179 195 208 210 222 249 270 269 267 250
344 350 69 68 50 39 41 213 317 62 51 265 283 300 314 333 275 98 7 44 25 46 110 157 80 185 179 171 266 272 319 25 347 332 5 3 338 321 359 23 13 333 294 9 7 27 52 30 124 115 207 213 260 230 260 260 245 251 228 214 197 197 110 100 122 133 128 124 112 124 178 203 208 192 193 191 190 176 188 217 221 224 237 253 267 270 276
342 51 56 21 40 42 13 336 349 322 309 298 308 199 14 29 74 345 4 32 314 29 6 21 99 73 332 278 36 9 319 86 346 350 346 306 273 59 354 46 3 314 335 308 310 6 336 40 19 308 269 256 283 279 270 255 254 255 264 255 198 181 154 135 139 138 137 154 202 197 200 210 224 208 204 203 187 190 210 223 237 238 251 261 268 275 287
62 34 48 28 82 159 191 255 339 325 310 230 13 97 304 9 59 23 353 298 342 42 309 5 48 241 151 221 295 62 31 23 26 31 6 72 2 349 23 354 12 90 23 335 100 344 280 65 18 347 265 283 323 23 313 278 264 248 246 255 223 172 161 157 163 150 169 199 158 181 221 239 225 213 201 208 193 209 217 230 249 248 248 263 271 275 268
18 37 18 9 59 278 293 291 329 326 76 87 344 94 131 323 83 358 309 44 7 347 324 42 40 234 243 289 308 46 39 326 337 341 333 54 122 333 317 182 20 344 316 326 317 357 322 307 333 342 290 286 295 345 348 331 336 3 274 224 189 171 176 167 177 183 128 116 127 163 190 220 232 221 187 192 192 203 230 239 242 256 262 268 274 272 258
26 74 25 37 287 317 309 315 320 69 53 51 13 14 59 34 40 248 47 68 115 323 247 331 193 152 101 64 167 300 68 103 96 49 201 358 22 118 55 7 346 278 319 257 316 44 70 85 4 247 270 275 293 336 340 321 315 343 46 158 169 167 171 175 162 156 148 137 148 161 184 195 203 201 188 184 186 203 219 231 270 282 276 263 247 227 204
226 227 196 235 298 303 305 307 56 38 32 82 112 343 284 245 270 20 52 83 37 285 74 227 16 20 41 33 16 191 74 318 111 90 72 320 41 4 189 337 1 70 281 248 43 68 71 273 304 282 252 264 280 304 311 314 310 253 149 170 170 168 174 172 160 177 190 181 182 182 174 183 193 187 177 178 197 215 226 245 262 264 262 258 236 221 197
295 272 143 312 338 325 345 57 328 88 79 3 33 39 349 52 357 64 332 288 295 173 342 193 309 211 270 202 185 215 30 218 263 30 65 290 26 56 75 38 43 293 236 16 277 57 26 230 235 259 277 290 311 313 309 292 285 296 323 189 194 185 178 179 178 168 185 191 195 191 174 180 201 190 185 194 196 222 241 241 256 270 259 243 215 187 183
125 139 63 338 61 294 60 82 283 51 29 56 97 110 307 43 338 15 47 333 321 251 24 319 26 257 30 9 356 66 112 143 63 93 82 37 65 312 54 251 248 2 40 3 44 248 264 250 238 276 309 315 293 295 312 320 306 283 140 150 155 179 187 170 137 151 168 185 220 197 180 188 187 158 172 194 199 222 243 259 242 245 250 232 220 201 177
129 7 26 21 21 282 67 302 328 105 108 286 124 143 141 126 226 205 65 265 207 329 348 14 278 301 325 51 68 85 336 292 46 77 266 304 26 90 153 274 260 32 19 286 326 310 320 262 244 237 263 274 288 291 299 302 288 251 221 158 170 181 189 195 194 188 189 191 199 180 192 191 185 188 190 200 204 227 241 273 303 284 245 219 210 194 174
67 116 64 71 347 334 95 170 337 61 309 161 160 181 173 170 183 218 236 154 280 308 329 330 297 246 247 108 265 4 42 79 353 215 145 87 75 286 227 166 140 336 15 52 31 256 235 259 286 284 272 264 279 298 297 284 272 221 222 233 205 184 192 193 203 208 209 194 195 199 203 186 197 189 200 204 206 216 226 245 254 262 253 220 219 209 168
89 38 87 102 96 278 80 105 242 195 177 179 203 163 182 20 264 269 271 210 260 276 284 256 267 293 328 24 187 48 57 49 247 229 138 235 222 283 69 304 280 139 161 270 255 253 262 249 242 245 257 259 276 276 289 299 212 216 225 243 260 228 187 191 194 206 209 200 194 203 208 203 202 201 182 190 214 218 233 240 250 228 217 228 219 167 165
119 235 93 81 249 208 96 201 299 314 299 61 64 197 1 348 303 334 170 199 277 293 310 277 207 184 154 54 349 346 292 318 258 252 215 260 83 5 7 30 288 263 201 198 238 218 246 266 248 260 253 235 245 283 290 291 283 238 240 244 241 230 215 207 208 208 190 194 199 206 208 204 198 194 198 215 231 230 217 239 249 217 213 215 209 185 184
128 119 134 184 184 159 199 237 173 132 122 319 316 297 230 255 264 273 283 161 239 326 336 300 155 112 295 58 68 26 253 105 254 268 72 46 140 227 151 236 292 300 236 197 244 242 241 263 259 257 272 274 246 235 258 264 276 286 273 260 253 242 224 220 222 203 189 198 204 205 209 204 194 194 198 196 224 243 228 240 243 226 210 206 205 195 189
54 1 53 90 103 288 114 275 21 346 60 90 203 229 188 227 266 279 204 259 314 330 125 95 133 212 323 254 259 40 244 244 202 56 71 223 207 157 91 273 218 204 247 194 223 241 243 247 258 267 253 251 259 246 253 264 252 259 269 268 264 254 242 233 223 197 196 199 203 210 204 181 192 196 196 208 211 210 206 222 229 231 215 206 205 200 202
30 98 240 203 197 209 149 150 167 170 240 234 253 241 178 218 225 286 147 348 43 42 43 252 346 132 190 74 71 274 245 125 178 202 195 224 170 157 201 231 236 206 230 222 222 246 269 255 231 260 269 261 248 248 245 255 262 262 266 272 269 260 255 246 236 214 205 203 201 199 202 208 207 202 199 177 168 190 208 227 229 232 227 209 204 209 204
82 18 260 296 233 171 147 66 348 250 251 265 247 241 170 250 222 229 218 154 92 124 252 120 127 105 118 227 223 213 58 55 253 41 294 245 175 189 213 215 251 237 230 247 261 245 233 249 236 239 245 261 268 265 262 264 268 267 259 259 259 254 248 239 231 222 207 192 193 200 211 211 195 176 151 168 180 192 218 231 214 207 218 221 213 209 215